Regional Weather Roundup
Issued by NWS Wilmington, NC

Home | Current Version | Previous Version | Text Only | Print | Product List | Glossary On
Versions: 1 2 3 4 5 6 7 8 9 10 11 12 13 14 15 16 17 18 19 20 21 22 23 24 25 26 27 28
000
ASUS42 KILM 011213
RWRILM
RWRILM
REGIONAL HOURLY WEATHER ROUNDUP
NATIONAL WEATHER SERVICE WILMINGTON NC
800 AM EDT SUN MAY 01 2016

NOTE: "FAIR" INDICATES FEW OR NO CLOUDS BELOW 12,000 FEET WITH NO
SIGNIFICANT WEATHER AND/OR OBSTRUCTIONS TO VISIBILITY.

...............WFO WILMINGTON COUNTY WARNING AREA...............

......COASTAL NC AND SC COUNTIES......

CITY           SKY/WX    TMP DP  RH WIND       PRES   REMARKS
WILMINGTON     CLOUDY    67  65  93 CALM      30.09S
N MYRTLE BEACH PTSUNNY   73  65  75 S8        30.08R
MYRTLE BEACH   PTSUNNY   72  63  73 SE12      30.09R

......INLAND NC AND SC COUNTIES.......

CITY           SKY/WX    TMP DP  RH WIND       PRES   REMARKS
LUMBERTON      CLOUDY    65  62  90 E6        30.08S FOG
ELIZABETHTOWN  CLOUDY    63  63 100 CALM      30.11R FOG
WHITEVILLE     MOSUNNY   67  64  91 CALM      30.08R
FLORENCE       CLOUDY    68  64  87 SE8       30.06S
DARLINGTON     NOT AVBL
KINGSTREE      CLOUDY    68  63  83 SE6       30.07R
HARTSVILLE     CLOUDY   N/A N/A N/A E5        30.07R
BENNETTSVILLE  CLOUDY    68  64  88 SE5       30.07R
CONWAY         FAIR      68  64  88 S3        30.08R FOG
GEORGETOWN     FAIR      70  64  83 SE8       30.08R
MARION         PTSUNNY   64  63  94 CALM      30.09R FOG

....................REST OF NORTH CAROLINA......................

.........EASTERN NC.........

CITY           SKY/WX    TMP DP  RH WIND       PRES   REMARKS
CAPE HATTERAS  CLOUDY    66  61  84 E5        30.12F
JACKSONVILLE   CLOUDY    62  61  96 NE5       30.11S FOG
MOREHEAD CITY  PTSUNNY   65  63  93 E5        30.10F
KENANSVILLE    CLOUDY    60  59  97 CALM      30.12R FOG
NEW BERN       CLOUDY    63  58  83 NE3       30.12S
ELIZABETH CITY CLOUDY    58  55  90 E5        30.13S

.........CENTRAL NC.........

CITY           SKY/WX    TMP DP  RH WIND       PRES   REMARKS
RALEIGH DURHAM CLOUDY    60  57  89 SE8       30.10S
ROCKY MOUNT    CLOUDY    58  56  93 E5        30.12R FOG
ROANOKE RAPIDS NOT AVBL
FAYETTEVILLE   CLOUDY    62  60  93 E6        30.09F FOG
HOFFMAN        CLOUDY    63  61  94 SE6       30.08R

.........WESTERN NC.........

CITY           SKY/WX    TMP DP  RH WIND       PRES   REMARKS
CHARLOTTE      TSTM      66  64  93 SW10      30.06R FOG
GREENSBORO     CLOUDY    61  60  97 S8        30.06R FOG
HICKORY        NOT AVBL
BOONE          NOT AVBL
ASHEVILLE      NOT AVBL

.....................REST OF SOUTH CAROLINA.....................

.........EASTERN SC.........

CITY           SKY/WX    TMP DP  RH WIND       PRES   REMARKS
CHARLESTON     MOSUNNY   75  66  73 S14       30.05S
BEAUFORT MCAS  PTSUNNY   77  70  79 S7        30.05R
HILTON HEAD    PTSUNNY   75  70  83 S7        30.07R

.........CENTRAL SC.........

CITY           SKY/WX    TMP DP  RH WIND       PRES   REMARKS
COLUMBIA       CLOUDY    71  67  87 SE8       30.02R
ORANGEBURG     CLOUDY    72  67  84 SE6       30.05R
SUMTER SHAW    CLOUDY    70  66  88 SE6       30.03R

.........WESTERN SC.........

CITY           SKY/WX    TMP DP  RH WIND       PRES   REMARKS
GREENVILLE     NOT AVBL
ROCK HILL        N/A    N/A N/A N/A MISG      30.06R THUNDER
ANDERSON       CLOUDY    68  66  93 W5        30.03R
CLEMSON        NOT AVBL
GREENWOOD      CLOUDY    70  66  87 S9        30.03S


...................COASTAL AND OFFSHORE REPORTS..................

................LOCAL PIERS AND NC RESERVE................


STATION/POSITION TIME  SKY/WX   TEMP    WIND        PRES    VSBY
                                AIR SEA DIR/SP/G
                 (UTC)          (F)     (DEG/KT/KT) (MB)    (MI)
JOHNY MRCER PIER 1100            66 69   50/  7/  9 1018.0F
NC RESRV MASNBRO NOT AVBL
OCEAN CREST PIER NOT AVBL
SPRINGMAID  PIER 1100            70 70  120/ 11/ 12 1017.8F


................COASTAL AND OFFSHORE BUOYS................


STATION/POSITION TIME  SKY/WX   TEMP    WIND        PRES    VSBY
                                AIR SEA DIR/SP/G
                 (UTC)          (F)     (DEG/KT/KT) (MB)    (MI)
DIMNDSHOAL 41025 1150            72 73  180/ 12/ 14 1020.1R
WVE H/P(F/S)=  4/ 9 SWL H/P/D(F/S/D)=  3/ 70/ 9

CAPE LOOKOUT     1200            68     160/  7/  8 1019.1F
ONSLOW BAY 41036 NOT AVBL
ONSLOW BAY 41064 NOT AVBL
ONSLOW BAY 41159 1125               68                N/A
WVE H/P(F/S)=  4/10 SWL H/P/D(F/S/D)=  2/100/11

5SE WRITBC 41038 1108            69 67  180/  6/  8 1019.6F
MASNBO INL 41110 1106               68                N/A
WVE H/P(F/S)=  3/ 9

WILM HARBR 41108 1126               68                N/A
WVE H/P(F/S)=  3/ 5

27SE WRITB 41037 1108            73 71  180/ 12/ 16 1018.5R
FRYING PAN 41013 1100            72 70  160/ 10/ 12 1019.3R
SUNST NRSH 41024 1108            70 68  160/ 10/ 14 1018.2S
CAPRS NRSH 41029 1108            73 71  160/ 12/ 17 1017.5R
EDISTO     41004 1150            74 72  140/ 16/ 19 1017.3S
WVE H/P(F/S)=  6/ 5 SWL H/P/D(F/S/D)=  2/ 8



..........OFFSHORE BUOYS BEYOND 100 NM OFFSHORE...........
.....IN A TRIANGLE---HAT TO BERMUDA TO BAHAMAS TO HAT.....


STATION/POSITION TIME  SKY/WX   TEMP    WIND        PRES    VSBY
                                AIR SEA DIR/SP/G
                 (UTC)          (F)     (DEG/KT/KT) (MB)    (MI)
150E HAT   41001 NOT AVBL
W BERMUDA  41048 1150            69 69   10/ 10/ 12 1020.5R
WVE H/P(F/S)=  6/ 8 SWL H/P/D(F/S/D)=  5/360/ 8

ATLANTIC S 41049 1150            73 75  350/  4/  6 1019.1R
WVE H/P(F/S)=  3/10 SWL H/P/D(F/S/D)=  3/ 90/10

E BAHAMAS  41046 1150            78 79   90/ 12/ 14 1016.8R
WVE H/P(F/S)=  3/ 5 SWL H/P/D(F/S/D)=  2/ 80/ 8

NE BAHAMAS 41047 1150            76 77   80/ 12/ 14 1019.1R
WVE H/P(F/S)=  3/ 9 SWL H/P/D(F/S/D)=  2/ 80/ 9

120E CANVRL41010 1120            77 77  140/ 14/ 16 1017.3R

END




USA.gov is the U.S. government's official web portal to all federal, state and local government web resources and services.